Location: Aetna Mine
(37.6183°N, 107.6045°W)
Time: 10:58:01
(UTC+00:00)

Cosmos 44 Rocket - Pass Details

Date: 18 September 2020
Orbit: 645 x 745 km, 65.1° (Epoch: 20 October)

Event Time Altitude Azimuth Distance (km) Brightness Sun altitude
Rises 12:05:06 0° 199° (SSW) 2,949 6.2 -10.7°
Reaches altitude 10° 12:07:23 10° 195° (SSW) 2,051 5.5 -10.3°
Maximum altitude 12:11:57 59° 116° (ESE) 762 3.8 -9.4°
Drops below altitude 10° 12:16:39 10° 38° (NE) 2,114 6.5 -8.5°
Sets 12:19:02 0° 34° (NE) 3,049 7.3 -8.0°
